Guernsey, United Kingdom

8:03 AM BST on April 27, 2018 (GMT +0100)
Guernsey

Weather History for EGJB - February, 2013

Change the Weather History Date:

Thursday, February 7, 2013

  Actual Average Record
Temperature  
Mean Temperature 42 °F -  
Max Temperature 44 °F 46 °F 51 °F (2001)
Min Temperature 39 °F 40 °F 35 °F (2009)
Degree Days  
Heating Degree Days 24    
Moisture  
Dew Point 34 °F    
Average Humidity 74    
Maximum Humidity 93    
Minimum Humidity 51    
Precipitation  
Precipitation 0.03 in - - ()
Sea Level Pressure  
Sea Level Pressure 30.14 in    
Wind  
Wind Speed 12 mph ()    
Max Wind Speed 17 mph    
Max Gust Speed -    
Visibility 6.5 miles    
Events Rain    
Averages and records for this station are not official NWS values.
T = Trace of Precipitation, MM = Missing Value Source: Averaged Metar Reports

Daily Weather History Graph

Daily Weather History Graph

Search for Another Location

Airport or City:

Astronomy

Feb. 07, 2013 Rise Set
Actual Time 7:33 AM GMT 5:16 PM GMT
Civil Twilight 6:59 AM GMT 5:50 PM GMT
Nautical Twilight 6:21 AM GMT 6:28 PM GMT
Astronomical Twilight 5:44 AM GMT 7:05 PM GMT
Moon 5:09 AM GMT (2/7) 2:15 PM GMT (2/7)
Length of Visible Light 10h 51m
Length of Day
9h 43m
Waning Crescent, 10% of the Moon is Illuminated
Feb 7
Waning Crescent
Feb 10
New
Feb 17
First Quarter
Feb 25
Full
Mar 4
Last Quarter

Hourly Weather History & Observations

Time (GMT) Temp. Windchill Dew Point Humidity Pressure Visibility Wind Dir Wind Speed Gust Speed Precip Events Conditions
12:00 AM 41 °F - 29 °F 51% 30.19 in 28 mi NNW 17.3 mph - -   Mostly Cloudy
3:00 AM 41 °F - 31 °F 56% 30.21 in 31 mi NNW 13.8 mph - -   Mostly Cloudy
3:50 AM 39.2 °F 30.5 °F 30.2 °F 70% 30.18 in 6.2 mi NNW 16.1 mph - N/A   Partly Cloudy
4:20 AM 39.2 °F 32.0 °F 30.2 °F 70% 30.18 in 6.2 mi North 11.5 mph - N/A   Partly Cloudy
4:50 AM 39.2 °F 31.2 °F 30.2 °F 70% 30.18 in 6.2 mi North 13.8 mph - N/A   Partly Cloudy
5:20 AM 39.2 °F 31.6 °F 30.2 °F 70% 30.18 in 6.2 mi NNW 12.7 mph - N/A   Partly Cloudy
5:50 AM 39.2 °F 32.5 °F 30.2 °F 70% 30.18 in 6.2 mi NNW 10.4 mph - N/A   Partly Cloudy
6:00 AM 40 °F - 31 °F 60% 30.22 in 34 mi NNW 10.4 mph - -   Scattered Clouds
6:20 AM 39.2 °F 32.0 °F 30.2 °F 70% 30.18 in 6.2 mi NNW 11.5 mph - N/A   Partly Cloudy
6:50 AM 39.2 °F 32.0 °F 30.2 °F 70% 30.21 in 6.2 mi NW 11.5 mph - N/A   Partly Cloudy
7:20 AM 39.2 °F 33.0 °F 30.2 °F 70% 30.21 in 6.2 mi NNW 9.2 mph - N/A   Partly Cloudy
7:50 AM 41.0 °F 34.3 °F 32.0 °F 70% 30.18 in 6.2 mi NW 11.5 mph - N/A   Scattered Clouds
8:20 AM 41.0 °F 33.5 °F 33.8 °F 76% 30.18 in 6.2 mi NW 13.8 mph - N/A   Scattered Clouds
8:50 AM 41.0 °F 33.5 °F 33.8 °F 76% 30.18 in 6.2 mi NW 13.8 mph - N/A   Scattered Clouds
9:00 AM 41 °F - 34 °F 67% 30.22 in 28 mi NW 13.8 mph - -  
9:20 AM 42.8 °F 35.4 °F 33.8 °F 70% 30.21 in 6.2 mi NW 15.0 mph - N/A   Scattered Clouds
9:50 AM 42.8 °F 36.2 °F 33.8 °F 70% 30.21 in 6.2 mi NW 12.7 mph - N/A   Scattered Clouds
10:20 AM 42.8 °F 35.4 °F 33.8 °F 70% 30.18 in 6.2 mi NW 15.0 mph - N/A   Scattered Clouds
10:50 AM 42.8 °F 35.8 °F 32.0 °F 66% 30.21 in 6.2 mi NW 13.8 mph - N/A   Scattered Clouds
11:20 AM 42.8 °F 36.2 °F 33.8 °F 70% 30.18 in 6.2 mi NW 12.7 mph - N/A   Partly Cloudy
11:50 AM 42.8 °F 35.4 °F 33.8 °F 70% 30.18 in 6.2 mi WNW 15.0 mph - N/A   Partly Cloudy
12:00 PM 43 °F - 34 °F 61% 30.21 in 28 mi WNW 15.0 mph - -   Partly Cloudy
12:20 PM 42.8 °F 35.8 °F 33.8 °F 70% 30.15 in 6.2 mi NW 13.8 mph - N/A   Partly Cloudy
12:50 PM 42.8 °F 35.4 °F 35.6 °F 76% 30.15 in 6.2 mi WNW 15.0 mph - N/A   Partly Cloudy
1:20 PM 42.8 °F 35.8 °F 35.6 °F 76% 30.15 in 6.2 mi WNW 13.8 mph - N/A   Scattered Clouds
1:50 PM 42.8 °F 35.1 °F 33.8 °F 70% 30.12 in 6.2 mi WNW 16.1 mph - N/A   Partly Cloudy
2:20 PM 42.8 °F 35.8 °F 33.8 °F 70% 30.12 in 6.2 mi WNW 13.8 mph - N/A   Partly Cloudy
2:50 PM 42.8 °F 35.8 °F 33.8 °F 70% 30.12 in 6.2 mi WNW 13.8 mph - N/A   Partly Cloudy
3:00 PM 43 °F - 33 °F 59% 30.14 in 25 mi WNW 13.8 mph - -   Overcast
3:20 PM 42.8 °F 35.8 °F 35.6 °F 76% 30.09 in 6.2 mi WNW 13.8 mph - N/A   Scattered Clouds
3:50 PM 42.8 °F 36.6 °F 35.6 °F 76% 30.09 in 6.2 mi WNW 11.5 mph - N/A   Scattered Clouds
4:20 PM 42.8 °F 35.1 °F 35.6 °F 76% 30.09 in 6.2 mi WNW 16.1 mph - N/A Rain Light Rain
4:50 PM 42.8 °F 34.8 °F 37.4 °F 81% 30.06 in 6.2 mi West 17.3 mph - N/A Rain Light Rain
5:20 PM 41.0 °F 32.8 °F 37.4 °F 87% 30.06 in 6.2 mi West 16.1 mph - N/A Rain Light Rain
5:50 PM 41.0 °F 33.5 °F 37.4 °F 87% 30.06 in 6.2 mi WNW 13.8 mph - N/A Rain Light Rain
6:00 PM 41 °F - 37 °F 82% 30.08 in 16 mi WNW 13.8 mph - - Rain Light Rain
6:20 PM 41.0 °F 33.9 °F 39.2 °F 93% 30.04 in 6.2 mi West 12.7 mph - N/A Rain Light Rain
6:50 PM 41.0 °F 34.7 °F 37.4 °F 87% 30.04 in 6.2 mi West 10.4 mph - N/A Rain Light Rain
7:20 PM 39.2 °F 34.2 °F 37.4 °F 93% 30.04 in 6.2 mi WSW 6.9 mph - N/A Rain Rain
7:50 PM 39.2 °F 37.0 °F 37.4 °F 93% 30.01 in 6.2 mi West 3.5 mph - N/A Rain Rain
8:20 PM 39.2 °F - 37.4 °F 93% 30.01 in 6.2 mi SW 2.3 mph - N/A Rain Rain
8:50 PM 39.2 °F - 37.4 °F 93% 30.01 in 6.2 mi Calm Calm - N/A Rain Rain
9:00 PM 39 °F - 38 °F 93% 30.02 in 9 mi Calm Calm - - Rain Rain